Location: Unspecified
(47.4992°N, 121.7766°W)
Time: 15:13:34
(UTC-07:00)

Okean 3 - Pass Details

Date: 12 August 2024
Orbit: 557 x 581 km, 82.5° (Epoch: 08 September)

Event Time Altitude Azimuth Distance (km) Brightness Sun altitude
Rises 02:54:07 0° 345° (NNW) 2,755 7.6 -23.7°
Reaches altitude 10° 02:56:21 10° 339° (NNW) 1,854 6.5 -23.5°
Enters shadow 02:59:23 38° 301° (WNW) 857 4.2 -23.3°
